EW7664 Weather Reports


time (UTC)temp
C
wind
direction
speed
KPH
gust
KPH
rain 1hr
cm
rain 24hr
cm
rain mn
cm
humidity
%
barometer
mb
20260504050535 5 140 0.0 0.0 0.00 0.00 0.00 60 1014.1
20260504045535 5 140 0.0 0.0 0.00 0.00 0.00 59 1014.2
20260504045035 4 140 0.0 0.0 0.00 0.00 0.00 60 1014.4
20260504044535 4 140 0.0 0.0 0.00 0.00 0.00 59 1014.5
20260504043036 4 140 0.0 0.0 0.00 0.00 0.00 59 1014.4
20260504042535 4 140 0.0 0.0 0.00 0.00 0.00 59 1014.3
20260504042035 4 140 0.0 0.0 0.00 0.00 0.00 59 1014.4
20260504041535 4 140 0.0 0.0 0.00 0.00 0.00 59 1014.2
20260504041035 4 140 0.0 0.0 0.00 0.00 0.00 59 1014.3
20260504040535 4 140 0.0 0.0 0.00 0.00 0.00 58 1014.3
20260504040035 4 140 0.0 0.0 0.00 0.00 0.00 58 1014.2
20260504035535 4 140 0.0 0.0 0.00 0.00 0.00 58 1014.2
20260504035035 4 140 0.0 0.0 0.00 0.00 0.00 58 1014.2
20260504033504 5 140 0.0 0.0 0.00 0.00 0.00 57 1014.1
20260504033025 5 140 0.0 0.0 0.00 0.00 0.00 57 1014.1
20260504032539 5 140 0.0 0.0 0.00 0.00 0.00 57 1014.1
20260504032045 5 140 0.0 0.0 0.00 0.00 0.00 58 1014.1
20260504031525 5 140 0.0 0.0 0.00 0.00 0.00 57 1013.9
20260504030024 5 140 0.0 0.0 0.00 0.00 0.00 56 1013.9
20260504025023 5 140 0.0 0.0 0.00 0.00 0.00 56 1013.9
20260504024524 5 136 0.0 0.0 0.00 0.00 0.00 55 1013.9
20260504024023 5 136 0.0 0.0 0.00 0.00 0.00 55 1013.9
20260504022503 5 136 0.0 0.0 0.00 0.00 0.00 55 1013.8
20260504022003 5 136 0.0 0.0 0.00 0.00 0.00 55 1013.9
20260504021524 5 136 0.0 0.0 0.00 0.00 0.00 54 1013.9
20260504021023 6 136 0.0 0.0 0.00 0.00 0.00 53 1013.8
20260504020508 6 136 0.0 0.0 0.00 0.00 0.00 53 1013.6
20260504020023 6 136 0.0 0.0 0.00 0.00 0.00 53 1013.7
20260504015524 6 136 0.0 0.0 0.00 0.00 0.00 54 1013.6
20260504015023 6 136 0.0 0.0 0.00 0.00 0.00 53 1013.5
20260504014523 6 136 0.0 0.0 0.00 0.00 0.00 52 1013.4
20260504014003 6 136 0.0 0.0 0.00 0.00 0.00 52 1013.4
20260504013524 6 136 0.0 0.0 0.00 0.00 0.00 51 1013.4
20260504013024 6 136 0.0 0.0 0.00 0.00 0.00 51 1013.3
20260504012503 6 136 0.0 0.0 0.00 0.00 0.00 50 1013.3
20260504012024 7 136 0.0 0.0 0.00 0.00 0.00 49 1013.2
20260504011524 7 136 0.0 0.0 0.00 0.00 0.00 48 1013.2
20260504010029 7 136 0.0 0.0 0.00 0.00 0.00 46 1013.2
20260504005504 8 136 0.0 0.0 0.00 0.00 0.00 44 1013.1
20260504004503 8 136 0.0 0.0 0.00 0.00 0.00 43 1013.0
20260504004003 9 136 0.0 0.0 0.00 0.00 0.00 43 1013.0
20260504003523 9 136 0.0 0.0 0.00 0.00 0.00 42 1012.8
20260504002503 10 136 0.0 0.0 0.00 0.00 0.00 41 1012.8
20260504001503 10 135 0.0 0.0 0.00 0.00 0.00 37 1012.9
20260504001023 11 135 0.0 0.0 0.00 0.00 0.00 37 1013.0
20260504000523 11 135 0.0 0.0 0.00 0.00 0.00 37 1012.9
20260504000003 11 135 0.0 0.0 0.00 0.00 0.00 37 1012.8
20260503235002 12 135 0.0 0.0 0.00 0.00 0.00 35 1012.8
20260503234504 12 133 0.0 0.0 0.00 0.00 0.00 32 1012.7
20260503234003 13 133 0.0 0.0 0.00 0.00 0.00 28 1012.7
20260503233503 13 133 0.0 0.0 0.00 0.00 0.00 26 1012.7
20260503233003 13 133 0.0 0.0 0.00 0.00 0.00 24 1012.6
20260503232503 13 133 0.0 0.0 0.00 0.00 0.00 24 1012.6
20260503231504 14 133 0.0 0.0 0.00 0.00 0.00 22 1012.6
20260503231004 14 133 0.0 0.0 0.00 0.00 0.00 22 1012.5
20260503230503 14 133 0.0 0.0 0.00 0.00 0.00 23 1012.5
20260503230004 14 136 0.0 0.0 0.00 0.00 0.00 22 1012.4
20260503225503 14 136 0.0 0.0 0.00 0.00 0.00 23 1012.5
20260503225002 14 136 0.0 0.0 0.00 0.00 0.00 21 1012.5
20260503224503 14 136 0.0 0.0 0.00 0.00 0.00 22 1012.5
20260503224002 15 136 0.0 0.0 0.00 0.00 0.00 20 1012.4
20260503223502 15 136 0.0 0.0 0.00 0.00 0.00 21 1012.4
20260503223002 15 136 0.0 0.0 0.00 0.00 0.00 19 1012.4
20260503222502 15 138 0.0 1.6 0.00 0.00 0.00 21 1012.5
20260503222003 15 138 0.0 1.6 0.00 0.00 0.00 21 1012.5
20260503221503 15 138 0.0 4.8 0.00 0.00 0.00 21 1012.6
20260503221004 15 129 1.6 11.3 0.00 0.00 0.00 19 1012.5
20260503220503 15 112 1.6 11.3 0.00 0.00 0.00 19 1012.5
20260503215502 15 134 0.0 0.0 0.00 0.00 0.00 20 1012.5
20260503215003 15 134 1.6 6.4 0.00 0.00 0.00 18 1012.6
20260503214502 15 63 0.0 8.0 0.00 0.00 0.00 17 1012.6
20260503214003 15 90 0.0 6.4 0.00 0.00 0.00 18 1012.7
20260503213503 15 175 0.0 9.7 0.00 0.00 0.00 18 1012.5
20260503213003 15 48 0.0 9.7 0.00 0.00 0.00 18 1012.6
20260503212503 15 117 0.0 0.0 0.00 0.00 0.00 19 1012.5
20260503212003 15 117 0.0 9.7 0.00 0.00 0.00 19 1012.5
20260503211003 15 49 0.0 8.0 0.00 0.00 0.00 17 1012.7
20260503210002 15 323 0.0 9.7 0.00 0.00 0.00 18 1012.7
20260503205502 15 113 0.0 9.7 0.00 0.00 0.00 19 1012.7
20260503205002 15 92 1.6 9.7 0.00 0.00 0.00 18 1012.8
20260503204502 15 142 1.6 11.3 0.00 0.00 0.00 18 1012.8
20260503204002 15 146 1.6 11.3 0.00 0.00 0.00 20 1012.7
20260503203503 15 144 0.0 6.4 0.00 0.00 0.00 19 1012.6
20260503203002 15 142 1.6 6.4 0.00 0.00 0.00 19 1012.7
20260503202503 15 152 1.6 6.4 0.00 0.00 0.00 18 1012.8
20260503202003 15 130 0.0 6.4 0.00 0.00 0.00 21 1013.1
20260503201502 15 28 0.0 6.4 0.00 0.00 0.00 19 1013.0
20260503201003 15 133 0.0 6.4 0.00 0.00 0.00 19 1013.0
20260503200504 15 163 0.0 11.3 0.00 0.00 0.00 19 1013.1
20260503200002 15 163 0.0 11.3 0.00 0.00 0.00 19 1013.1
20260503195502 15 127 1.6 11.3 0.00 0.00 0.00 21 1013.3
20260503194503 15 101 0.0 4.8 0.00 0.00 0.00 19 1013.5
20260503194002 15 153 0.0 4.8 0.00 0.00 0.00 18 1013.5
20260503193503 15 120 1.6 6.4 0.00 0.00 0.00 18 1013.6
20260503193003 15 116 1.6 6.4 0.00 0.00 0.00 19 1013.8
20260503192503 15 137 1.6 8.0 0.00 0.00 0.00 17 1013.9
20260503192003 15 194 0.0 8.0 0.00 0.00 0.00 19 1013.8
20260503191503 15 126 0.0 3.2 0.00 0.00 0.00 20 1013.9
20260503190003 15 85 0.0 8.0 0.00 0.00 0.00 18 1014.2
20260503185002 15 149 1.6 19.3 0.00 0.00 0.00 20 1014.2
20260503184502 15 317 3.2 19.3 0.00 0.00 0.00 18 1014.4
20260503184003 15 37 0.0 9.7 0.00 0.00 0.00 21 1014.4
20260503183003 14 88 1.6 6.4 0.00 0.00 0.00 21 1014.5
20260503182504 14 65 3.2 17.7 0.00 0.00 0.00 19 1014.5
20260503182002 14 36 3.2 17.7 0.00 0.00 0.00 20 1014.5
20260503181504 14 132 1.6 8.0 0.00 0.00 0.00 21 1014.5
20260503181003 14 116 0.0 8.0 0.00 0.00 0.00 22 1014.5
20260503180003 15 227 0.0 9.7 0.00 0.00 0.00 22 1014.6
20260503175503 14 109 1.6 8.0 0.00 0.00 0.00 21 1014.6
20260503175003 14 98 1.6 11.3 0.00 0.00 0.00 24 1014.6
20260503174003 14 110 1.6 9.7 0.00 0.00 0.00 25 1014.6
20260503172502 13 171 0.0 4.8 0.00 0.00 0.00 24 1014.9
20260503172003 13 116 1.6 11.3 0.00 0.00 0.00 24 1014.9
20260503171502 13 117 1.6 12.9 0.00 0.00 0.00 26 1015.0
20260503171003 13 44 1.6 12.9 0.00 0.00 0.00 22 1015.2
20260503150503 10 72 1.6 14.5 0.00 0.00 0.00 32 1016.2
20260503130505 8 333 0.0 6.4 0.00 0.00 0.00 39 1016.4
20260503110504 1 130 0.0 0.0 0.00 0.00 0.00 66 1015.6
20260503090503 3 130 0.0 0.0 0.00 0.00 0.00 59 1014.1
20260503080502 3 129 0.0 0.0 0.00 0.00 0.00 61 1013.8
20260503072502 4 129 0.0 0.0 0.00 0.00 0.00 56 1013.5
20260503072002 4 129 0.0 0.0 0.00 0.00 0.00 57 1013.5
20260503071502 4 128 0.0 0.0 0.00 0.00 0.00 56 1013.4
20260503070503 4 128 0.0 0.0 0.00 0.00 0.00 59 1013.3
20260503055002 3 127 0.0 0.0 0.00 0.00 0.00 60 1013.0
20260503054502 3 127 0.0 0.0 0.00 0.00 0.00 60 1013.0
20260503054002 3 127 0.0 0.0 0.00 0.00 0.00 60 1013.1
20260503053003 3 126 0.0 0.0 0.00 0.00 0.00 58 1013.2
20260503052502 3 126 0.0 0.0 0.00 0.00 0.00 57 1013.1